Regional Weather Roundup
Issued by NWS Upton, NY

Current Version | Previous Version | Text Only | Print | Product List | Glossary Off
Versions: 1 2 3 4 5 6 7 8 9 10 11 12 13 14 15 16 17 18 19 20 21 22 23 24 25 26 27 28 29 30 31 32 33 34 35 36 37 38 39 40 41 42 43 44 45 46 47 48 49 50
000 ASUS41 KOKX 221905 RWROKX REGIONAL WEATHER ROUNDUP NATIONAL WEATHER SERVICE NEW YORK NY 200 PM EST SAT NOV 22 2014 NOTE: "FAIR" INDICATES FEW OR NO CLOUDS BELOW 12,000 FEET WITH NO SIGNIFICANT WEATHER AND/OR OBSTRUCTIONS TO VISIBILITY. NYZ071-072-176-178-NJZ106-104-222000- NEW YORK CITY METRO AREA CITY SKY/WX TMP DP RH WIND PRES REMARKS CENTRAL PARK SUNNY 41 12 30 VRB6 30.32F LAGUARDIA APRT PTSUNNY 41 13 31 SW14 30.31F KENNEDY INTL PTSUNNY 42 14 32 SW16 30.33F NEWARK/LIBERTY PTSUNNY 44 14 29 SW12 30.31F BRNX BOT. GARD N/A N/A N/A N/A S6 30.31S TETERBORO SUNNY 43 10 26 SW16 30.29F $$ NYZ177-179-078>081-222000- LONG ISLAND NEW YORK CITY SKY/WX TMP DP RH WIND PRES REMARKS FARMINGDALE SUNNY 42 17 36 SW16 30.31F ISLIP PTSUNNY 41 19 41 SW20G26 30.30F SHIRLEY SUNNY 40 21 46 SW21 30.31F WCI 30 WESTHAMPTON SUNNY 41 22 46 SW20G29 30.31F MONTAUK POINT N/A 42 26 53 SW15G24 30.30F $$ NYZ052-065-067-222000- HUDSON VALLEY CITY SKY/WX TMP DP RH WIND PRES REMARKS WHITE PLAINS PTSUNNY 39 10 30 VRB5 30.27F NEWBURGH SUNNY 39 10 30 S12G18 30.25F WCI 32 MONTGOMERY SUNNY 40 11 30 SW17 30.24F WCI 31 POUGHKEEPSIE SUNNY 42 9 25 SW7 30.24F ALBANY PTSUNNY 36 11 35 S13G22 30.18F WCI 27 $$ NJZ001-105-106-008-010-013-015-019>022-104-222000- NEW JERSEY CITY SKY/WX TMP DP RH WIND PRES REMARKS NEWARK/LIBERTY PTSUNNY 44 14 29 SW12 30.31F TETERBORO SUNNY 43 10 26 SW16 30.29F CALDWELL SUNNY 41 10 28 VRB6G17 30.30F MORRISTOWN MOSUNNY 41 10 28 W10G18 30.30F SOMERVILLE SUNNY 44 13 28 SW8G16 30.29F SUSSEX SUNNY 40 12 32 SW9 30.26F WCI 34 ANDOVER N/A 39 13 34 SW8 30.27F WCI 33 TRENTON SUNNY 42 15 33 SW10 30.32F MILLVILLE SUNNY 44 20 38 W12 30.39F ATLANTIC CITY SUNNY 44 19 36 SW17G24 30.37F WRIGHTSTOWN SUNNY 44 14 30 SW16G28 30.31F TOMS RIVER SUNNY 45 12 26 W7 30.35F BELMAR SUNNY 45 14 29 SW9 30.32F $$ PAZ047>061-062-071-222000- EASTERN PENNSYLVANIA CITY SKY/WX TMP DP RH WIND PRES REMARKS PHILADELPHIA PTSUNNY 45 18 34 SW18 30.36F ALLENTOWN CLOUDY 43 11 27 SW14G20 30.30F SCRANTON CLOUDY 39 10 30 SW10 30.21F WCI 32 $$ CTZ002-004>006-009-010-012-RIZ004-006-007-MAZ004-011-015-222000- SOUTHERN NEW ENGLAND IN CT CITY SKY/WX TMP DP RH WIND PRES REMARKS BRADLEY INTL PTSUNNY 44 10 25 SW17G23 30.21F HARTFORD SUNNY 42 11 28 S12 30.24F DANBURY SUNNY 39 8 27 SW13 30.26F WCI 31 WTRBRY/OXFORD SUNNY 39 12 33 SW12G17 30.25F WCI 32 BRIDGEPORT SUNNY 41 20 43 SW14G24 30.29F MERIDEN SUNNY 42 12 29 S10 30.26F NEW HAVEN MOSUNNY 43 19 38 SW10G22 30.29F CHESTER FAIR 37 18 44 SW13G23 30.26F WCI 29 GROTON SUNNY 41 23 48 SW16 30.27F WILLIMANTIC SUNNY 40 11 30 SW13 30.25F WCI 32 IN RI CITY SKY/WX TMP DP RH WIND PRES REMARKS PROVIDENCE PTSUNNY 43 19 38 SW14G25 30.25F BLOCK ISLAND SUNNY 43 27 52 W23G31 30.28F WESTERLY MOSUNNY 41 19 41 SW13G24 30.29F IN MA CITY SKY/WX TMP DP RH WIND PRES REMARKS BOSTON PTSUNNY 42 7 23 SW21 30.17F WORCESTER MOSUNNY 38 4 24 SW18G28 30.15F WCI 28 WESTFIELD SUNNY 43 8 23 S12 30.18F PROVINCETOWN MOSUNNY 43 25 49 SW25G32 30.21F NANTUCKET MOSUNNY 47 32 56 SW25G36 30.27F $$ ANZ330-335-338-340-345-350-353-355-222000- COASTAL MARINE OBSERVATIONS STATION/POSITION TIME SKY/WX TEMP WIND PRES VSBY WAVE AIR SEA DIR/SP/G HT/PER (UTC) (F) (DEG/KT/KT) (MB) (MI) (FT/S) NY HARB ENTRANCE 1900 43 56 220/ 17/ 21 1026.9 2/ 4 4S FIRE IS 1900 51 N/A 4/ 5 20S FIRE ISLAND 1900 42 54 220/ 21/ 27 1026.9 4/ 5 23SW MTP 1900 N/A 6/ 5 HUDSON CANYON 1900 44 58 240/ 17/ 21 1028.2 3/ 4 EXECUTION ROCKS 1900 42 47 230/ 14/ 17 N/A WESTERN LI SOUND 1900 41 220/ 16/ 19 N/A 2/ 3 CENTRAL LI SOUND 1800 40 51 230/ 17/ 19 N/A 3/ 4 EASTERN LI SOUND 1800 42 53 220/ 17/ 21 N/A ROBBINS REEF 1900 40 230/ 13/ 16 1025.5 $$ >>>>>>>>>>>>>>>>>>>>>>>>>>>> KEY <<<<<<<<<<<<<<<<<<<<<<<<<<< > < > SKY/WX - SKY CONDITION/PRESENT WEATHER < > TMP - TEMPERATURE IN FAHRENHEIT < > DP - DEWPOINT IN FAHRENHEIT < > RH - RELATIVE HUMIDITY IN PERCENT < > WIND - DIRECTION AND SPEED IN MPH < > PRES - MEAN SEA LEVEL PRESSURE IN INCHES OF HG < > WCI - WIND CHILL INDEX < > VSB - VISIBILITY IN MILES < > HX - HEAT INDEX < > TC - TEMPERATURE IN CELSIUS < > VRB - VARIABLE WIND DIRECTION < > < >>>>>>>>>>>>>>>>>>>>>>>>>>>> KEY <<<<<<<<<<<<<<<<<<<<<<<<<<<

USA.gov is the U.S. government's official web portal to all federal, state and local government web resources and services.